Location: Unspecified
(49.2170°N, 0.0000°E)
Time: 09:34:54
(UTC+00:00)

Transit 2A Rocket - Visible Passes

Search period start: 24 January 2021 00:00
Search period end: 03 February 2021 00:00
Orbit: 592 x 910 km, 66.7° (Epoch: 23 January)

Date Brightness Start Highest point End Pass type
(mag) Time Alt. Az. Time Alt. Az. Time Alt. Az.
24 Jan 6.7 17:56:04 10° N 17:57:48 12° NNE 17:59:04 11° NE visible
24 Jan 6.7 19:37:35 10° NNW 19:38:59 18° NNW 19:38:59 18° NNW visible
25 Jan 6.1 18:55:10 10° NNW 18:57:44 22° NNE 18:57:44 22° NNE visible
25 Jan 7.6 20:37:25 10° NW 20:37:38 11° NW 20:37:38 11° NW visible
26 Jan 6.1 18:12:49 10° NNW 18:15:55 18° NNE 18:16:31 17° NE visible
26 Jan 6.6 19:54:46 10° NW 19:56:26 22° NNW 19:56:26 22° NNW visible
27 Jan 6.5 17:30:33 10° N 17:32:51 14° NNE 17:35:07 10° NE visible
27 Jan 5.4 19:12:13 10° NNW 19:15:19 37° N 19:15:19 37° N visible
28 Jan 5.3 18:29:46 10° NNW 18:33:46 31° NE 18:34:18 30° NE visible
28 Jan 6.7 20:12:16 10° NW 20:14:13 23° WNW 20:14:13 23° WNW visible
29 Jan 5.9 17:47:23 10° NNW 17:50:53 22° NE 17:53:23 14° ENE visible
29 Jan 4.9 19:29:30 10° NW 19:33:19 61° WNW 19:33:19 61° WNW visible
30 Jan 4.4 18:46:54 10° NNW 18:51:19 66° NE 18:52:34 43° ESE visible
30 Jan 7.2 20:30:33 10° WNW 20:32:31 16° W 20:32:31 16° W visible
31 Jan 5.0 18:04:24 10° NNW 18:08:37 40° NE 18:12:02 14° ESE visible
31 Jan 6.3 19:47:14 10° NW 19:50:59 29° WSW 19:52:00 26° SW visible
01 Feb 5.3 19:04:19 10° NW 19:08:34 50° WSW 19:11:47 16° S visible
02 Feb 4.5 18:21:37 10° NW 18:26:01 88° WSW 18:30:19 10° SSE visible
02 Feb 7.6 20:06:26 10° W 20:07:46 11° WSW 20:09:06 10° WSW visible
